DateTimeUTC,F1_A11,F1_S11,BsB_S11,BsG_S11,BsR_S11,BbsB_S11,BbsG_S11,BbsR_S11,BaB_A11,BaG_A11,BaR_A11,Tu_S11,T_S11,Uu_S11,U_S11,P_S11,T1_A11
2021-09-05T10:00:00Z,00000200,20000000,,,,,,,0000.31,0000.03,0000.45,18.2,25.0,01.7,01.1,0663.3,31.0
2021-09-05T10:01:00Z,00000200,20000000,,,,,,,0000.18,0000.25,-000.36,18.2,25.1,01.7,01.1,0663.4,31.0
2021-09-05T10:02:00Z,00000200,20000000,,,,,,,0000.17,-000.28,0000.15,18.3,25.1,01.7,01.1,0663.4,31.0
2021-09-05T10:03:00Z,00000200,60000000,,,,,,,0000.72,0001.26,0000.74,18.3,25.1,02.0,01.3,0663.4,31.0
2021-09-05T10:04:00Z,00000200,40000000,0002.61,0002.42,0001.61,-000.26,0000.44,0000.13,0000.63,-000.03,0000.36,18.5,24.9,02.5,01.7,0664.4,31.0
2021-09-05T10:05:00Z,00000200,00000000,0002.97,0002.27,0001.40,0001.02,0000.18,0000.26,0000.44,0000.60,-000.08,18.5,24.9,02.4,01.6,0664.5,31.0
2021-09-05T10:06:00Z,00000200,00000000,0003.25,0002.39,0001.67,0000.72,0000.38,0000.41,0000.36,0000.70,0000.52,18.5,24.8,02.3,01.6,0664.4,31.0
2021-09-05T10:07:00Z,00000200,00000000,0002.60,0002.49,0001.34,0000.56,0000.61,0000.06,0000.54,0000.53,0000.57,18.5,24.8,02.2,01.5,0664.5,31.0
2021-09-05T10:08:00Z,00000200,00000000,0002.85,0002.34,0001.54,0000.42,0000.49,0000.31,0000.47,0000.28,0000.31,18.4,24.8,02.2,01.5,0664.5,31.0
2021-09-05T10:09:00Z,00000200,00000000,0002.51,0002.32,0001.29,0000.85,0000.37,0000.07,0000.54,0000.39,0000.25,18.4,24.8,02.1,01.4,0664.5,31.0
2021-09-05T10:10:00Z,00000200,00000000,0002.95,0001.81,0001.71,0000.72,0000.26,0000.18,0000.64,0000.83,0000.68,18.4,24.8,02.1,01.4,0664.8,31.0
2021-09-05T10:11:00Z,00000200,00000000,0002.84,0002.36,0001.65,0000.94,0000.23,0000.18,0000.82,0000.43,0000.63,18.3,24.7,02.0,01.4,0664.8,31.0
2021-09-05T10:12:00Z,00000200,00000000,0002.66,0002.20,0001.92,0001.03,0000.39,0000.40,0000.48,0000.63,0000.79,18.3,24.7,01.9,01.3,0664.8,31.0
2021-09-05T10:13:00Z,00000200,01000000,0003.78,0002.36,0001.28,0000.58,0000.21,0000.39,0001.09,0000.56,0000.35,18.4,24.7,02.0,01.4,0664.8,31.0
2021-09-05T10:14:00Z,00000200,01000000,0001.76,0002.02,0001.65,0000.28,0000.32,0000.08,0000.39,0001.01,0000.55,18.5,24.8,01.8,01.2,0664.8,31.0
2021-09-05T10:15:00Z,00000200,00000000,0002.32,0001.95,0001.75,0000.57,0000.47,0000.24,0000.81,0000.64,0000.72,18.6,24.8,01.9,01.3,0664.8,31.0
2021-09-05T10:16:00Z,00000200,01000000,0003.85,0002.04,0001.60,0000.63,0000.34,0000.11,0000.72,0000.46,0000.30,18.7,24.9,01.9,01.3,0664.8,31.0
2021-09-05T10:17:00Z,00000200,01000000,0002.48,0002.18,0001.46,0000.31,0000.54,-000.01,0000.54,0000.74,0000.53,18.7,24.9,01.9,01.3,0664.8,31.0
2021-09-05T10:18:00Z,00000200,01000000,0003.33,0002.83,0001.45,0001.03,0000.42,0000.52,0000.54,0000.44,0000.36,18.7,24.9,01.9,01.3,0664.8,31.0
2021-09-05T10:19:00Z,00000200,00000000,0002.91,0002.12,0001.60,0000.33,0000.64,0000.32,0000.76,0000.97,0000.39,18.7,24.9,01.9,01.3,0664.8,31.0
2021-09-05T10:20:00Z,00000200,00000000,0003.29,0002.48,0001.79,0000.98,0000.46,-000.07,0000.91,0000.56,0000.73,18.6,24.9,02.0,01.4,0664.9,31.0
2021-09-05T10:21:00Z,00000200,00000000,0003.14,0002.34,0001.38,0001.19,0000.50,0000.16,0000.23,0000.52,0000.36,18.6,24.9,01.9,01.3,0664.9,31.0
2021-09-05T10:22:00Z,00000200,00000000,0002.96,0001.94,0001.39,0000.58,0000.55,0000.38,0000.86,0000.56,-000.13,18.6,24.8,02.0,01.3,0664.9,31.0
2021-09-05T10:23:00Z,00000200,01000000,0002.55,0002.21,0001.73,0000.70,0000.72,0000.36,0000.08,0000.06,0000.85,18.6,24.8,01.8,01.2,0664.9,31.0
2021-09-05T10:24:00Z,00000200,01000000,0003.68,0002.66,0001.78,0001.24,0000.39,0000.45,0000.66,0000.07,0000.04,18.5,24.8,01.6,01.1,0664.9,31.0
2021-09-05T10:25:00Z,00000200,01000000,0003.02,0002.22,0001.69,0000.99,0000.22,0000.23,0000.20,0000.61,0000.50,18.5,24.8,01.5,01.0,0664.9,31.0
2021-09-05T10:26:00Z,00000200,01000000,0003.08,0002.31,0001.70,0000.60,0000.17,0000.31,0000.58,0000.47,0000.30,18.5,24.8,01.4,01.0,0664.9,31.0
2021-09-05T10:27:00Z,00000200,01000000,0002.99,0002.44,0001.69,0001.01,0000.26,-000.09,0000.52,0000.58,0000.79,18.5,24.8,01.4,00.9,0664.9,31.0
2021-09-05T10:28:00Z,00000200,01000000,0002.99,0002.46,0001.75,0000.70,0000.65,0000.54,0000.74,0000.62,0000.25,18.5,24.8,01.3,00.9,0664.8,31.0
2021-09-05T10:29:00Z,00000200,01000000,0002.78,0002.44,0001.66,0000.57,0000.42,0000.16,0000.71,0000.42,0000.35,18.6,24.8,01.3,00.9,0664.8,31.0
2021-09-05T10:30:00Z,00000200,01000000,0002.88,0002.08,0001.76,0001.04,0000.49,0000.67,0001.09,0001.23,0001.27,18.6,24.9,01.2,00.8,0664.8,31.0
2021-09-05T10:31:00Z,00000200,01000000,0002.76,0002.14,0001.14,0000.55,0000.66,-000.06,0000.09,0000.45,-000.31,18.6,24.9,01.3,00.9,0664.8,31.0
2021-09-05T10:32:00Z,00000200,01000000,0002.55,0002.45,0001.66,0001.02,0000.51,0000.14,0000.45,0000.02,0000.35,18.6,24.9,01.1,00.8,0664.8,31.0
2021-09-05T10:33:00Z,00000200,01000000,0001.72,0002.33,0001.92,0000.77,0000.35,0000.45,0000.42,0000.30,0000.51,18.6,24.9,01.0,00.7,0664.8,31.0
2021-09-05T10:34:00Z,00000200,01000000,0003.94,0002.44,0001.72,0000.54,0000.31,0000.02,0000.22,0000.81,0000.33,18.6,24.8,01.0,00.7,0664.8,31.0
2021-09-05T10:35:00Z,00000200,01000000,0003.29,0002.01,0001.89,0001.09,0000.23,0000.32,0000.85,0000.31,0000.64,18.5,24.8,00.9,00.6,0664.9,31.0
2021-09-05T10:36:00Z,00000200,01000000,0002.90,0002.03,0001.79,0000.51,0000.35,0000.25,0000.41,0000.72,-000.01,18.5,24.8,01.0,00.7,0664.9,31.0
2021-09-05T10:37:00Z,00000200,01000000,0002.97,0002.45,0001.37,0000.45,0000.26,0000.12,0000.89,0000.34,0000.68,18.5,24.8,01.0,00.7,0664.9,31.0
2021-09-05T10:38:00Z,00000200,01000000,0002.89,0002.40,0001.92,0000.46,0000.41,0000.36,0000.45,0000.74,0000.21,18.4,24.8,01.0,00.7,0664.8,31.0
2021-09-05T10:39:00Z,00000200,01000000,0003.21,0002.27,0001.64,0001.00,0000.49,0000.18,0000.63,0000.52,0000.59,18.4,24.8,00.9,00.6,0664.8,31.0
2021-09-05T10:40:00Z,00000200,01000000,0003.30,0002.25,0001.79,0000.34,0000.53,0000.11,0000.34,0000.20,0000.57,18.4,24.7,01.0,00.7,0664.8,31.0
2021-09-05T10:41:00Z,00000200,01000000,0002.72,0001.84,0001.72,0000.54,0000.74,0000.29,0001.18,0000.73,0000.35,18.4,24.7,00.9,00.6,0664.8,31.0
2021-09-05T10:42:00Z,00000200,01000000,0002.84,0002.42,0001.42,0000.65,0000.53,0000.21,0000.65,0000.93,0000.75,18.4,24.7,00.9,00.6,0664.8,31.0
2021-09-05T10:43:00Z,00000200,01000000,0002.45,0002.48,0001.77,0000.78,0000.58,0000.33,0000.46,0000.70,0000.46,18.4,24.7,00.8,00.6,0664.8,31.0
2021-09-05T10:44:00Z,00000200,01000000,0003.41,0002.33,0001.61,0000.22,0000.17,0000.07,0000.89,0000.44,0000.55,18.5,24.8,00.8,00.6,0664.8,31.0
2021-09-05T10:45:00Z,00000200,01000000,0002.46,0002.08,0001.68,0000.05,0000.26,0000.54,0000.56,0000.84,0000.66,18.6,24.8,00.8,00.5,0664.8,31.0
2021-09-05T10:46:00Z,00000200,01000000,0002.26,0002.13,0001.63,0000.67,0000.54,0000.15,0000.64,0000.42,0000.26,18.6,24.8,00.9,00.6,0664.8,31.0
2021-09-05T10:47:00Z,00000200,01000000,0004.05,0002.57,0001.75,0000.79,0000.33,0000.16,0000.90,0000.75,0000.73,18.6,24.8,00.9,00.6,0664.7,31.0
2021-09-05T10:48:00Z,00000200,01000000,0003.61,0002.18,0001.58,0000.61,0000.43,0000.21,0000.59,0000.75,0000.19,18.6,24.8,00.9,00.6,0664.8,31.0
2021-09-05T10:49:00Z,00000200,01000000,0003.70,0002.49,0001.89,0001.16,0000.39,0000.30,0000.53,0000.44,0000.51,18.6,24.8,00.9,00.6,0664.7,31.0
2021-09-05T10:50:00Z,00000200,01000000,0004.13,0002.41,0001.29,0000.66,0000.38,0000.02,0000.75,0000.67,0000.62,18.5,24.8,00.9,00.6,0664.7,31.0
2021-09-05T10:51:00Z,00000200,01000000,0003.22,0002.43,0001.60,0000.31,0000.40,0000.03,0000.81,0000.74,0000.10,18.5,24.8,01.0,00.7,0664.7,31.0
2021-09-05T10:52:00Z,00000200,01000000,0002.87,0002.40,0001.72,0000.42,0000.43,0000.32,0000.37,0000.76,0000.74,18.4,24.8,01.0,00.7,0664.7,31.0
2021-09-05T10:53:00Z,00000200,01000000,0002.89,0002.53,0001.68,0001.23,0000.58,0000.08,0001.15,0000.57,0000.78,18.4,24.8,01.0,00.7,0664.9,31.0
2021-09-05T10:54:00Z,00000200,01000000,0002.75,0002.70,0001.83,0001.09,0000.56,0000.21,0000.51,0000.51,0000.36,18.4,24.7,01.0,00.7,0664.9,31.0
2021-09-05T10:55:00Z,00000200,01000000,0003.06,0002.25,0001.40,0001.08,0000.37,0000.06,0000.57,0000.42,0000.16,18.4,24.7,01.1,00.7,0664.8,31.0
2021-09-05T10:56:00Z,00000200,01000000,0003.07,0002.26,0001.56,0000.67,0000.81,0000.19,0000.69,0000.59,0000.72,18.3,24.7,00.9,00.6,0664.8,31.0
2021-09-05T10:57:00Z,00000200,41000000,,,,,,,0000.82,0001.08,0000.52,18.3,24.7,00.6,00.4,0664.8,31.0
2021-09-05T10:58:00Z,00000200,61000000,,,,,,,0000.07,-000.50,0000.34,18.1,24.9,01.2,00.8,0663.8,31.0
2021-09-05T10:59:00Z,00000200,21000000,,,,,,,-000.09,0000.44,-000.45,18.1,25.0,01.2,00.8,0663.8,31.0
